NOAA-19
1 33591U 09005A 09357.64563062 -.00000153 00000-0 -61397-4 0 03716
2 33591 098.7704 298.6750 0015104 067.8429 292.4327 14.11009814045155
HUBBLE
1 20580U 90037B 09357.30213847 .00000407 00000-0 18376-4 0 4924
2 20580 028.4717 307.9826 0003481 131.1307 228.9628 15.00869724878296
ISS
1 25544U 98067A 09358.92155093 .00015188 00000-0 95524-4 0 2387
2 25544 051.6442 046.3508 0008002 111.8756 254.1167 15.76927485636015
CO-58
1 28895U 05043F 09357.65514618 .00000223 00000-0 56020-4 0 04713
2 28895 098.0357 242.6961 0019050 114.6048 245.7146 14.59827976221377
FALCON
1 30776U 07006E 09357.44415891 .00000534 00000-0 41547-4 0 07306
2 30776 035.4341 031.0361 0000609 060.9744 299.1045 15.03402717153597
MAST
1 31126U 07012K 09357.68731240 .00000029 00000-0 16940-4 0 7610
2 31126 097.9628 043.5485 0095437 052.1420 308.8348 14.53540593142568
CAPE1
1 31130U 07012P 09357.63698843 .00000132 00000-0 41003-4 0 07748
2 31130 097.9622 041.2690 0103637 058.7348 302.3928 14.52117944142183
COMPASS
1 32787U 08021E 09358.20719130 .00000435 00000-0 61822-4 0 5515
2 32787 097.9172 060.1867 0016617 132.2283 228.0417 14.81721367 89588
AAUSAT2
1 32788U 08021F 09357.68626328 .00000772 00000-0 10411-3 0 5435
2 32788 097.9195 059.7634 0016268 135.1675 225.0876 14.81853405 89517
DO-64
1 32789U 08021G 09357.63863142 .00000706 00000-0 95717-4 0 05607
2 32789 097.9235 060.0161 0016334 133.7669 226.4869 14.81899981089509
CO-66
1 32791U 08021J 09358.20534545 .00000221 00000-0 34869-4 0 5407
2 32791 097.9183 060.2144 0016657 129.8658 230.4089 14.81532405 89547
RS-30
1 32953U 08025A 09357.82324765 .00000010 00000-0 00000-0 0 04837
2 32953 082.5015 138.7208 0019625 124.4655 235.8280 12.43003224071955
TACSAT-3
1 35001U 09028A 09358.95719122 .00003173 00000-0 83289-4 0 1753
2 35001 040.4545 179.1366 0021736 142.6580 217.5750 15.39841612 33756
PHARMSAT
1 35002U 09028B 09357.94325595 .00002962 00000-0 76296-4 0 01686
2 35002 040.4666 183.9795 0024787 140.0282 220.2363 15.40532422033603
HAWKSAT1
1 35003U 09028C 09357.90331526 .00006144 00000-0 14564-3 0 01746
2 35003 040.4609 182.6036 0023783 145.0377 215.2006 15.41811125033621
CP6
1 35004U 09028D 09357.89343831 .00007214 00000-0 16882-3 0 01684
2 35004 040.4614 182.5352 0023061 145.2609 214.9711 15.42038031033613
AEROCUB3
1 35005U 09028E 09358.89354245 .00011812 00000-0 27337-3 0 1739
2 35005 040.4719 177.1638 0023133 149.0768 211.1418 15.41952723 33766
DRAGNSAT
1 35690U 09038B 09357.58592141 .00061231 12546-4 20061-3 0 1485
2 35690 051.6387 042.4374 0003563 327.7842 032.2955 15.90930755 23161
POLLUX
1 35693U 09038E 09357.60320151 .00054012 00000-0 18331-3 0 1564
2 35693 051.6384 043.3293 0000926 269.9588 090.1263 15.89326541 23126
CASTOR
1 35694U 09038F 09357.58956553 .00021765 00000-0 95932-4 0 1374
2 35694 051.6408 045.5564 0002313 224.8731 135.2108 15.84461577 23090
METEOR-M
1 35865U 09049A 09357.62725017 .00000176 00000-0 10000-3 0 846
2 35865 098.7854 047.4614 0002740 137.6542 222.4803 14.21828393 13777
